SCP
1 1 1 1 0 0 1 1 1 1 1 1 1 1 1 1 1 0 0 0 0 0 0 0 0 0 0 0 0 0 0 0 0 0 0 0 0 0
1 1 1 1 1 1 1 1 1 1 1 1 1 1 2 1 1 1 1 1 0 0 0 0 0 0 0 0 0 0 0 0 0 0 0 0 0 0
1 1 1 1 1 1 1 1 1 1 1 1 1 1 2 2 1 1 1 1 1 0 0 0 0 0 0 0 0 0 0 0 0 0 0 0 0 0
2 2 1 1 1 1 1 1 1 1 1 1 1 1 2 2 2 2 1 1 1 0 0 0 0 0 0 0 0 0 0 0 0 0 0 0 0 0
1 2 2 2 2 2 2 2 1 1 1 1 1 2 2 2 2 2 2 1 1 0 0 0 0 0 0 0 0 0 0 0 0 0 0 0 0 0
2 2 2 2 2 2 2 2 2 2 2 2 2 2 2 2 2 2 1 1 1 0 0 0 0 0 0 0 0 0 0 0 0 0 0 0 0 0
2 2 2 2 2 2 2 2 2 2 3 3 2 2 1 1 1 1 1 1 1 1 1 1 1 0 0 0 0 0 0 0 0 0 0 0 0 0
3 3 2 1 1 1 1 1 1 2 2 2 2 1 1 1 1 1 1 1 1 1 1 1 1 1 1 0 0 0 0 0 0 0 0 0 0 0
3 3 2 2 1 1 1 1 1 1 1 1 1 1 1 1 1 1 1 1 1 1 1 1 1 1 1 0 0 0 0 0 0 0 0 0 0 0
3 3 3 2 2 1 1 1 1 1 0 0 0 0 0 1 1 1 1 1 1 1 1 1 1 1 1 1 0 0 0 0 0 0 0 0 0 0
3 3 3 2 1 1 1 1 1 1 1 0 0 0 0 0 0 1 1 1 1 1 1 1 1 1 1 1 1 0 0 0 0 0 0 0 0 0
3 2 2 1 1 0 1 1 1 1 1 1 1 0 0 0 0 0 1 1 1 1 1 1 1 1 1 1 1 1 0 0 0 0 0 0 0 0
3 2 2 1 0 0 0 1 1 1 1 1 1 1 1 1 1 1 1 1 1 1 1 1 1 1 1 1 1 1 1 1 0 0 0 0 0 0
2 2 1 1 0 0 0 0 0 0 0 1 1 1 1 1 1 1 1 1 1 1 1 1 1 1 1 1 1 1 1 1 1 0 0 0 0 0
1 1 1 0 0 0 0 0 0 0 0 0 1 1 1 1 1 1 1 1 1 1 1 1 1 1 1 0 0 0 1 1 0 0 0 0 0 0
0 0 0 0 0 0 0 0 0 0 0 0 0 1 1 1 1 1 1 1 0 1 1 1 1 1 0 0 0 0 0 0 0 0 0 0 0 0
0 0 0 0 0 0 0 0 0 0 0 0 0 0 0 0 1 1 1 0 0 0 0 0 0 0 0 0 0 0 0 0 0 0 0 0 0 0
0 0 0 0 0 0 0 0 0 0 0 0 0 0 0 0 0 0 0 0 0 0 0 0 0 0 0 0 0 0 0 0 0 0 0 0 0 0
0 0 0 0 0 0 0 0 0 0 0 1 1 1 1 0 0 0 0 0 0 0 0 0 0 0 0 0 0 0 0 0 0 0 0 0 0 0
0 0 0 0 0 0 0 0 0 0 1 1 1 1 1 1 1 0 0 0 0 0 0 0 0 0 0 0 0 0 0 0 0 0 0 0 0 0
0 0 0 0 0 0 0 0 0 0 1 1 1 1 1 1 1 0 0 0 0 0 0 0 0 0 0 0 0 0 0 0 0 0 0 0 0 0
0 0 0 0 0 0 0 0 0 0 0 0 0 0 0 1 0 0 0 0 0 0 0 0 0 0 0 0 0 0 0 0 0 0 0 0 0 0
0 0 0 0 0 0 0 0 0 0 0 0 0 0 0 0 0 0 0 0 0 0 0 0 0 0 0 0 0 0 0 0 0 0 0 0 0 0
Wind_Speed
3 3 2 2 2 2 1 1 1 1 2 3 2 4 4 4 10 7 6 11 12 11 10 10 9 9 8 8 8 7 7 7 7 8 8 8 9 10
3 2 2 2 2 1 1 2 1 1 2 1 2 3 4 5 10 6 5 12 14 13 13 12 12 11 11 10 10 10 9 9 9 9 9 9 9 9
4 3 3 3 2 2 1 2 2 2 2 2 1 2 3 3 4 4 4 6 8 15 15 15 14 14 13 12 12 12 11 11 11 11 10 10 10 10
5 5 4 4 4 3 2 2 2 1 1 3 2 1 2 4 5 5 5 7 6 12 17 17 16 15 14 14 13 13 13 12 12 12 12 12 12 11
5 5 4 4 4 3 3 3 2 3 2 2 3 2 2 3 4 5 6 4 7 7 13 16 16 16 16 15 15 14 14 14 13 13 13 12 12 12
4 4 4 4 4 4 4 3 3 3 3 2 3 3 3 3 2 3 4 4 5 7 6 8 12 16 17 16 16 16 15 15 15 14 14 13 13 12
3 3 4 4 4 4 4 2 3 3 3 3 3 3 3 2 2 2 3 3 4 4 3 4 4 5 8 12 15 16 16 15 15 15 14 14 13 13
4 3 4 4 4 5 5 4 2 3 3 3 3 3 3 2 2 2 2 3 4 2 2 4 3 4 5 6 11 15 16 16 16 15 15 15 14 14
3 3 4 3 3 3 5 5 5 7 6 3 4 4 4 3 2 3 3 4 4 4 3 5 4 5 5 7 10 12 14 15 16 16 15 15 15 15
2 2 2 2 2 1 3 4 4 5 6 6 5 6 5 3 3 4 5 5 5 5 5 6 5 5 6 4 7 10 12 13 14 15 15 15 15 15
2 1 1 1 1 1 2 3 3 3 5 6 7 7 8 8 5 3 4 5 6 5 4 5 5 5 4 4 5 8 10 11 12 13 14 15 15 14
1 2 3 2 1 2 2 2 4 4 4 5 5 7 8 9 9 7 5 5 6 5 3 3 3 3 4 4 3 3 4 8 11 13 13 14 14 8
1 1 2 2 1 2 2 3 4 4 5 5 4 4 4 4 4 5 5 5 6 6 4 3 3 4 4 4 4 4 4 4 4 6 10 14 15 10
2 2 2 1 2 2 2 3 4 4 3 4 4 3 3 3 2 3 4 5 6 7 6 5 4 4 5 6 6 4 4 4 4 5 5 8 11 14
3 3 2 2 3 2 3 3 3 2 2 3 4 3 3 3 3 3 3 4 5 6 7 6 5 5 4 6 6 5 5 5 5 5 5 5 5 5
3 3 3 3 2 2 1 1 1 2 2 3 3 4 4 3 3 3 3 4 4 4 5 5 5 5 5 6 6 6 6 5 5 6 6 6 5 5
4 2 1 1 1 1 1 1 2 2 2 3 3 4 4 4 3 3 3 4 4 5 5 4 4 4 5 5 6 6 6 6 6 5 5 6 6 6
3 2 3 3 3 4 3 3 3 3 3 3 3 4 4 5 5 5 4 4 5 5 5 5 5 5 5 5 6 7 6 6 6 6 6 7 8 6
2 3 3 4 4 5 5 5 5 4 4 4 4 4 4 5 5 5 5 5 5 5 5 5 5 5 7 8 6 5 6 6 7 7 6 7 8 7
4 5 5 5 5 5 5 5 5 5 5 4 5 4 4 4 5 5 5 5 5 6 6 6 5 4 6 7 8 8 9 8 6 7 7 7 7 9
6 6 6 6 5 5 5 5 5 5 5 5 5 5 5 5 6 6 6 7 6 6 7 6 6 8 7 6 7 7 7 9 9 7 7 8 8 8
6 6 6 6 6 6 6 6 6 6 7 6 6 6 6 6 7 8 7 7 6 6 7 7 7 6 6 7 8 9 9 8 9 12 13 12 8 8
6 6 6 6 6 6 6 7 8 7 7 7 7 7 8 7 7 7 7 7 7 8 8 8 7 6 7 7 8 8 11 11 9 8 8 10 13 15
Wind_Direction
233 222 249 282 286 316 329 334 307 283 245 203 173 178 165 145 162 187 181 192 197 203 209 215 220 225 229 234 238 241 244 246 249 252 254 253 254 254
239 243 225 273 279 260 287 303 304 289 285 244 205 183 172 177 176 198 198 191 202 208 213 217 221 225 229 234 238 241 243 244 247 249 252 253 253 253
224 218 222 260 300 308 264 248 256 256 266 278 251 163 157 169 164 215 209 197 207 214 217 219 222 225 228 232 236 239 241 242 244 246 248 250 250 251
218 220 214 222 221 262 292 291 275 263 259 278 285 223 201 197 188 213 230 229 224 215 215 219 222 225 228 232 235 238 240 242 243 245 247 249 250 251
215 216 218 226 222 228 231 266 286 278 235 250 262 250 235 222 200 219 244 252 259 241 219 219 223 227 229 232 235 237 239 240 242 244 245 247 249 251
223 221 221 220 219 229 240 243 264 284 286 270 272 266 253 240 213 222 250 244 252 262 243 223 223 227 231 233 234 236 238 239 240 241 243 245 247 249
225 225 227 222 222 220 235 233 245 249 261 260 261 266 262 261 240 236 257 268 257 253 256 249 228 230 233 237 239 240 238 238 238 239 241 242 244 246
224 228 234 225 221 221 231 239 236 249 258 268 270 270 273 273 270 264 268 280 279 271 267 270 256 242 238 231 232 232 233 235 235 236 238 240 243 244
223 230 248 242 202 212 227 237 245 246 235 248 266 277 292 302 306 295 283 277 274 287 293 276 268 263 255 259 245 235 234 231 232 235 236 238 241 243
229 226 227 283 305 259 235 235 238 242 233 231 240 251 262 277 281 279 277 277 267 263 256 266 269 264 269 265 257 245 239 239 237 237 238 240 242 243
242 246 222 161 9 332 272 272 270 264 252 246 242 249 253 255 255 272 274 274 275 271 253 253 264 272 272 275 274 261 250 248 248 247 246 246 246 248
173 111 74 83 58 2 305 288 281 288 296 286 264 260 254 250 238 231 245 258 270 276 272 276 281 297 288 276 278 291 275 261 255 252 252 253 253 252
29 87 83 69 37 352 297 281 281 294 293 284 276 269 260 252 241 232 233 241 255 264 287 313 301 290 275 288 295 288 279 274 265 261 256 255 251 235
17 36 44 9 319 299 285 293 306 301 287 290 288 284 282 285 278 266 256 247 245 255 268 271 268 272 281 284 285 286 290 287 280 273 265 262 256 246
21 29 5 293 287 269 247 277 298 297 304 306 306 310 311 307 310 301 287 274 266 263 265 256 256 261 258 268 277 282 289 285 275 276 277 273 267 256
1 336 293 266 277 309 305 262 250 287 306 312 321 322 324 324 318 316 311 309 297 290 276 267 260 260 267 272 276 280 276 274 278 277 277 277 276 270
336 311 327 7 12 6 355 354 342 348 345 336 329 322 318 319 320 326 319 309 299 298 304 305 295 280 266 269 274 274 278 278 277 283 290 289 281 276
351 356 12 13 12 7 357 354 3 4 352 338 333 331 332 330 326 326 319 310 307 310 313 316 320 316 304 282 258 275 282 286 291 290 287 286 284 277
14 16 19 15 11 10 5 1 359 356 350 343 341 336 332 327 323 319 318 322 323 321 318 315 313 311 307 300 294 286 295 294 291 287 281 277 281 282
30 24 23 21 17 13 7 360 351 347 347 340 332 330 327 323 319 319 320 324 320 314 309 307 310 312 302 298 297 294 281 279 282 284 286 283 280 280
29 28 23 18 14 10 3 355 349 344 345 338 335 336 333 329 323 321 319 320 314 307 308 308 308 308 296 291 290 292 294 290 287 283 288 290 290 288
27 25 22 16 14 11 6 1 356 353 351 349 347 343 339 333 328 325 321 318 312 308 308 307 310 312 306 300 299 300 303 303 298 285 273 265 270 278
25 17 13 14 15 9 3 358 357 356 357 354 349 342 334 328 321 316 314 311 311 311 312 312 313 310 306 301 300 301 304 306 305 303 296 291 279 271